Regional Weather Roundup
Issued by NWS Austin/San Antonio, TX

Current Version | Previous Version | Text Only | Print | Product List | Glossary On
Versions: 1 2 3 4 5 6 7 8 9 10 11 12 13 14 15 16 17 18 19 20 21 22 23 24 25 26 27 28 29 30 31 32 33 34 35 36 37 38 39 40 41 42 43 44 45 46 47 48 49 50
000
ASUS44 KEWX 210911
RWREWX
SOUTH TEXAS REGIONAL WEATHER ROUNDUP
NATIONAL WEATHER SERVICE AUSTIN/SAN ANTONIO TX
400 AM CDT WED OCT 21 2020

NOTE: "FAIR" INDICATED FEW OR NO CLOUDS BELOW 12,000 FEET WITH NO
SIGNIFICANT WEATHER AND/OR OBSTRUCTIONS TO VISIBILITY.

* - THESE STATIONS ARE NOT NWS OR FAA STATIONS...AND ARE NOT SUBJECT
    TO NWS AND FAA QUALITY CONTROL.

TXZ171-172-183>190-211000-
TEXAS HILL COUNTRY AND EDWARDS PLATEAU

CITY           SKY/WX    TMP DP  RH WIND       PRES   REMARKS
JUNCTION       CLEAR     69  62  78 SE7       30.01S
*LLANO         MOCLDY    66  63  88 E3        30.01S
BURNET         CLOUDY    71  66  84 S7        30.04S
*HORSESHOE BAY CLEAR     70  64  83 SE3       30.02S
*LAGO VISTA    CLOUDY    71  68  92 S6        30.03S
*KERRVILLE     MOCLDY    67  64  87 S7        30.03R
*FREDERICKSBRG CLOUDY    67  64  90 S3        30.04R
*ROCKSPRINGS   CLOUDY    66  61  82 SE15G22   30.06S
*BOERNE        PTCLDY    68  68 100 S7        30.03F
*CASTROVILLE   CLOUDY    74  71  90 SE3       30.02S
HONDO          CLOUDY    72  67  84 S6        30.00S
*UVALDE        CLOUDY    71  68  90 SE6       30.02S
DEL RIO        PTCLDY    75  64  68 E12G21    29.94R
*LAUGHLIN AFB  PTCLDY    72  63  72 SE9       29.95S
*SPOFFORD      PTCLDY   N/A N/A N/A SE9       29.90F
*EAGLE PASS    NOT AVBL
CARRIZO SPRGS  CLOUDY    72  70  94 SE6       29.96S
*FAITH RANCH   MOCLDY    73  68  83 SE7       29.97F
$$

TXZ173-191>194-202-209-217>225-228-211000-
CENTRAL AND SOUTH CENTRAL TEXAS

CITY           SKY/WX    TMP DP  RH WIND       PRES   REMARKS
GEORGETOWN     CLEAR     72  69  90 SE3       30.03S
*TAYLOR        CLOUDY    74  69  86 SE9       30.01F
AUSTIN/BERGSTM CLOUDY    75  71  87 SE5       30.00S
AUSTIN/MABRY   CLOUDY    75  69  81 SE6       30.02S
*PFLUGERVILLE    N/A     72  68  88 CALM      30.02S
SAN MARCOS     MOCLDY    72  72 100 S3        30.01F
NEW BRAUNFELS  MOCLDY    75  70  84 SE5       29.99F
*RANDOLPH AFB  CLOUDY    72  70  94 SE3       29.99S
*SEGUIN        CLOUDY    72  70  94 SE5       30.03S
SAN ANTONIO    CLOUDY    73  69  87 SE8       30.00S
STINSON FIELD  CLOUDY    71  70  96 SE6       29.98S
*KELLY FIELD   CLOUDY    73  70  89 SE5       29.98S
*PLEASANTON    CLOUDY    72  70  95 E5        29.98F FOG
*KENEDY        FOG       72  71  97 E3        29.99S VSB 1
*LA GRANGE     CLOUDY    74  74 100 SE3       29.98F
*GIDDINGS      PTCLDY    75  72  91 S3        30.02S
*GONZALES      CLOUDY    74  74 100 SE6       30.00R
$$

TXZ163>164-176>182-195>201-210>213-226-227-235-211000-
SOUTHEAST TEXAS

CITY           SKY/WX    TMP DP  RH WIND       PRES   REMARKS
COLLEGE STN    FOG       70  69  97 CALM      30.01S VSB 3/4
*BRYAN         FOG       67  67 100 CALM      30.03S VSB<1/4
*CALDWELL      CLOUDY    72 N/A N/A CALM      30.02S HAZE
*CROCKETT      NOT AVBL
*BRENHAM       CLOUDY    72  72  99 CALM      30.01S FOG
HUNTSVILLE     MOCLDY    69  66  90 CALM      30.02S FOG
CONROE         CLOUDY    72  71  97 CALM      30.02S FOG
HOUSTON BUSH   FOG       72  71  97 NE3       30.00S VSB<1/4
HOUSTON HOBBY  PTCLDY    73  70  90 E5        30.00R
*HOUSTON SW AP PTCLDY    69  69  99 CALM      30.01S FOG
PEARLAND       CLEAR     72  69  90 E3        30.01R FOG
HOUSTON HOOKS  FOG       71  69  93 E3        30.01R VSB 1/4
ELLINGTON FLD  MOCLDY    70  70 100 CALM      29.99S
SUGAR LAND     CLOUDY    73  72  96 NE5       30.00R
*HOUSTON EXEC  FOG       70  70 100 E3        30.01S VSB<1/4
*CLEVELAND MUN FOG       70  70 100 CALM      30.03S VSB<1/4
*WHARTON       FOG       71  70  96 CALM      30.00S VSB 1/2
*COLUMBUS      CLOUDY    73  72  99 CALM      30.01S FOG
*EAGLE LAKE    FOG       71  70  97 CALM      29.99F VSB 1/4
$$

TXZ214>216-236>238-211000-
THE UPPER TEXAS COAST

CITY           SKY/WX    TMP DP  RH WIND       PRES   REMARKS
*ORANGE        FOG       67  66  95 CALM      30.03S VSB 1/4
PORT ARTHUR    PTCLDY    68  68 100 N5        30.00S FOG
GALVESTON      PTCLDY    77  72  84 E6        29.99S
ANGLETON       CLEAR     73  71  93 E3        29.99R
*BAY CITY      FOG       69  69  99 E3        29.99R VSB 3/4
PALACIOS       CLEAR     73  72  96 E5        29.97S
$$

TXZ229>234-239>247-211000-
TEXAS COASTAL BEND AND RIO GRANDE PLAINS

CITY           SKY/WX    TMP DP  RH WIND       PRES   REMARKS
VICTORIA       FOG       69  68  96 NE5       29.98S VSB 1/2
*BEEVILLE      NOT AVBL
ROCKPORT       PTCLDY    77  73  87 SE8       29.96S
*PORT ARANSAS  PTCLDY    79  73  80 SE10      29.97F
*PORT LAVACA   PTCLDY    76  71  85 CALM      29.96S
*INGLESIDE     NOT AVBL
CORPUS CHRISTI CLEAR     75  73  93 SE6       29.95F
CORPUS NAS     NOT AVBL
*ROBSTOWN      CLEAR     74  72  92 E7        29.96S
ALICE          CLOUDY    71  70  96 E5        29.95S
KINGSVILLE NAS CLOUDY    74  72  93 E3        29.94F
COTULLA        PTCLDY    73  69  87 E5        29.96F
LAREDO         CLOUDY    74  72  93 SE9       29.95S
$$

TXZ248>255-211000-
DEEP SOUTH TEXAS

CITY           SKY/WX    TMP DP  RH WIND       PRES   REMARKS
BROWNSVILLE    CLEAR     75  72  90 E3        29.92F
PORT ISABEL      N/A    N/A N/A N/A MISG      29.92F
HARLINGEN      PTCLDY    72  72 100 E3        29.93S
*HEBBRONVILLE  FOG       72  70  95 SE3       29.97F VSB 1/4
MCALLEN        PTCLDY    78  71  79 E3        29.93F
*WESLACO       CLOUDY    71  68  93 CALM      29.92F
FALFURRIAS     PTCLDY    67  67 100 CALM      29.94F
EDINBURG       PTCLDY    64  62  94 CALM      29.94F
*ZAPATA        NOT AVBL
$$

TXZ213>215-236>238-242>244-246-247-251-254-255-211000-
CMAN STATIONS

STATION/POSITION TIME  TEMP    WIND        PRES    WAVE
                       AIR SEA DIR/SP/G            HT/PER
                 (UTC) (F)     (DEG/KT/KT) (MB)    (FT/S)
SEA RIM ST PARK  0900   73      30/  6/  6 1015.8
NORTH JETTY/GLS  0830   82 77  140/  6/  7 1014.5
EAGLE POINT      0830   77 78   80/  6/  7 1015.3
MORGANS POINT    0830   75 79   70/  6/  8 1015.9
PORT O`CONNOR    0830   78 83  130/  8/ 10 1014.3
PORT ARANSAS     0900   79 80  120/ 12/ 12 1014.1
MALAQUITE BEACH  0830   80     100/ 12/ 13   N/A
BAFFIN BAY       0830   79 82  110/  8/ 10 1013.5
PORT ISABEL      0830   80 82  130/  9/ 11 1015.1
$$




USA.gov is the U.S. government's official web portal to all federal, state and local government web resources and services.